This is the latest recevied weather packets stored in our database for station/object IZ1UQG-1. If no packets are shown the sender has not sent any weather packets the latest 10 day(s).
| Time | Temp. | Humidity | Pressure | Rain* | Wind** | Luminosity | Snow |
|---|---|---|---|---|---|---|---|
| 1777042758 | 30° C | 29% | 1012.9 hPa | 32.51 mm | - | - | - |
| 1777042458 | 30° C | 29% | 1013 hPa | 34.54 mm | - | - | - |
| 1777042158 | 30° C | 29% | 1013.1 hPa | 34.54 mm | - | - | - |
| 1777041858 | 29.44° C | 29% | 1013.1 hPa | 32.51 mm | - | - | - |
| 1777041558 | 30° C | 28% | 1013.2 hPa | 33.02 mm | - | - | - |
| 1777041258 | 30° C | 28% | 1013.1 hPa | 41.91 mm | - | - | - |
| 1777040958 | 30.56° C | 28% | 1013 hPa | 40.89 mm | - | - | - |
| 1777040658 | 30° C | 28% | 1013.2 hPa | 39.88 mm | - | - | - |
| 1777040358 | 29.44° C | 29% | 1013.1 hPa | 35.56 mm | - | - | - |
| 1777040058 | 29.44° C | 29% | 1013.2 hPa | 45.97 mm | - | - | - |
| 1777039758 | 29.44° C | 28% | 1013.1 hPa | 41.4 mm | - | - | - |
| 1777039458 | 30° C | 29% | 1013.1 hPa | 42.42 mm | - | - | - |
| 1777039158 | 29.44° C | 29% | 1013.3 hPa | 33.53 mm | - | - | - |
| 1777038859 | 30° C | 29% | 1013.4 hPa | 44.45 mm | - | - | - |
| 1777038558 | 29.44° C | 30% | 1013.3 hPa | 45.47 mm | - | - | - |
| 1777038258 | 29.44° C | 29% | 1013.2 hPa | 45.97 mm | - | - | - |
| 1777037958 | 29.44° C | 30% | 1013.5 hPa | 39.88 mm | - | - | - |
| 1777037658 | 29.44° C | 30% | 1013.4 hPa | 49.53 mm | - | - | - |
| 1777037358 | 29.44° C | 31% | 1013.6 hPa | 49.53 mm | - | - | - |
| 1777037058 | 28.89° C | 33% | 1013.5 hPa | 53.85 mm | - | - | - |
| 1777036758 | 28.33° C | 31% | 1013.6 hPa | 49.02 mm | - | - | - |
| 1777036458 | 28.89° C | 32% | 1013.7 hPa | 60.45 mm | - | - | - |
| 1777036158 | 28.89° C | 31% | 1013.7 hPa | 58.93 mm | - | - | - |
| 1777035858 | 28.33° C | 31% | 1013.7 hPa | 68.33 mm | - | - | - |
| 1777035558 | 28.33° C | 31% | 1013.6 hPa | 57.4 mm | - | - | - |
* Rain latest hour (hover to see other rain measurements)
** Current wind speed in m/s (hover to see current wind gust speed)